Gwinn, MI

11:10 PM EDT on April 21, 2018 (GMT -0400)
Sawyer International

Weather History for KSAW - June, 2013

Change the Weather History Date:

Saturday, June 22, 2013

  Actual Average (KESC) Record (KESC)
Temperature  
Mean Temperature 58 °F -  
Max Temperature 64 °F 69 °F 84 °F (1998)
Min Temperature 51 °F 54 °F 37 °F (1992)
Degree Days  
Heating Degree Days 8    
Growing Degree Days 8 (Base 50)    
Moisture  
Dew Point 57 °F    
Average Humidity 95    
Maximum Humidity 100    
Minimum Humidity 83    
Precipitation  
Precipitation 0.01 in - - ()
Sea Level Pressure  
Sea Level Pressure 30.04 in    
Wind  
Wind Speed 3 mph (ENE)    
Max Wind Speed 10 mph    
Max Gust Speed -    
Visibility 4 miles    
Events Fog    
Averages and records for this station are not official NWS values.
T = Trace of Precipitation, MM = Missing Value Source: NWS Daily Summary

Daily Weather History Graph

Daily Weather History Graph

Search for Another Location

Airport or City:

Astronomy

Jun. 22, 2013 Rise Set
Actual Time 5:57 AM EDT 9:45 PM EDT
Civil Twilight 5:18 AM EDT 10:24 PM EDT
Nautical Twilight 4:25 AM EDT 11:17 PM EDT
Astronomical Twilight 3:09 AM EDT 12:33 AM EDT
Moon 8:56 PM EDT 5:13 AM EDT
Length of Visible Light 17h 06m
Length of Day
15h 48m
Waxing Gibbous, 99% of the Moon is Illuminated
Jun 22
Waxing Gibbous
Jun 23
Full
Jun 30
Last Quarter
Jul 8
New
Jul 15
First Quarter

Hourly Weather History & Observations

Time (EDT) Temp. Dew Point Humidity Pressure Visibility Wind Dir Wind Speed Gust Speed Precip Events Conditions
12:16 AM 56.1 °F 54.9 °F 96% 30.02 in 5.0 mi Calm Calm - N/A   Overcast
12:37 AM 57.2 °F 55.8 °F 95% 30.02 in 7.0 mi Calm Calm - N/A   Overcast
12:56 AM 58.1 °F 56.7 °F 95% 30.03 in 7.0 mi Calm Calm - N/A   Overcast
1:17 AM 59.2 °F 57.7 °F 95% 30.03 in 5.0 mi Calm Calm - N/A   Overcast
1:36 AM 58.3 °F 56.8 °F 95% 30.04 in 2.0 mi Calm Calm - N/A   Overcast
1:57 AM 55.4 °F 54.5 °F 97% 30.04 in 0.5 mi NE 5.8 mph - N/A Fog Fog
2:16 AM 56.3 °F 55.4 °F 97% 30.02 in 1.0 mi NE 4.6 mph - N/A   Overcast
2:36 AM 55.6 °F 54.7 °F 97% 30.02 in 1.0 mi North 5.8 mph - N/A   Overcast
2:57 AM 56.3 °F 55.4 °F 97% 30.00 in 0.8 mi NE 10.4 mph - N/A   Overcast
3:16 AM 54.0 °F 53.1 °F 97% 30.00 in 0.5 mi NE 10.4 mph - 0.01 in Fog Fog
3:37 AM 52.2 °F 51.3 °F 97% 30.00 in 0.2 mi NE 5.8 mph - 0.01 in Fog Fog
3:57 AM 51.8 °F 50.9 °F 97% 29.98 in 0.2 mi ENE 5.8 mph - 0.01 in Fog Fog
4:16 AM 52.2 °F 51.4 °F 97% 29.99 in 0.2 mi Calm Calm - N/A Fog Fog
4:37 AM 52.7 °F 51.8 °F 97% 29.99 in 0.2 mi Calm Calm - N/A Fog Fog
4:56 AM 53.4 °F 52.7 °F 97% 30.02 in 0.5 mi Calm Calm - N/A Fog Fog
5:16 AM 54.0 °F 53.4 °F 98% 30.04 in 0.5 mi NNE 3.5 mph - N/A Fog Fog
5:37 AM 54.0 °F 53.2 °F 97% 30.04 in 0.2 mi NNE 4.6 mph - N/A Fog Fog
5:56 AM 53.6 °F 52.9 °F 97% 30.05 in 0.2 mi Calm Calm - N/A Fog Fog
6:50 AM 55.4 °F 53.6 °F 94% 30.06 in 0.2 mi Calm Calm - N/A Fog Fog
7:50 AM 57.2 °F 57.2 °F 100% 30.08 in 0.2 mi Calm Calm - N/A Fog Fog
8:50 AM 59.0 °F 59.0 °F 100% 30.10 in 2.0 mi Calm Calm - N/A   Overcast
9:10 AM 60.8 °F 59.0 °F 94% 30.10 in 5.0 mi Calm Calm - N/A   Overcast
9:50 AM 60.8 °F 60.8 °F 100% 30.09 in 7.0 mi NNE 8.1 mph - N/A   Overcast
10:50 AM 59.0 °F 57.2 °F 94% 30.09 in 1.5 mi North 4.6 mph - N/A   Overcast
11:50 AM 57.2 °F 57.2 °F 100% 30.10 in 0.2 mi NE 8.1 mph - N/A Fog Fog
12:05 PM 57.2 °F 57.2 °F 100% 30.09 in 0.5 mi NNE 6.9 mph - N/A Fog Fog
12:55 PM 57.2 °F 57.2 °F 100% 30.06 in 0.8 mi East 9.2 mph - N/A   Overcast
1:30 PM 59.0 °F 57.2 °F 94% 30.01 in 3.0 mi East 9.2 mph - N/A   Overcast
1:50 PM 59.0 °F 57.2 °F 94% 30.01 in 5.0 mi East 8.1 mph - N/A   Overcast
2:55 PM 60.8 °F 57.2 °F 88% 30.07 in 10.0 mi NNW 6.9 mph - N/A   Overcast
3:55 PM 64.4 °F 60.8 °F 88% 30.07 in 10.0 mi ENE 3.5 mph - N/A   Overcast
5:50 PM 64.4 °F 59.0 °F 83% 30.05 in 10.0 mi East 4.6 mph - N/A   Overcast
6:55 PM 62.6 °F 59.0 °F 88% 30.04 in 10.0 mi NE 3.5 mph - N/A   Overcast
7:55 PM 62.6 °F 59.0 °F 88% 30.03 in 10.0 mi East 5.8 mph - N/A   Overcast
8:50 PM 62.6 °F 60.8 °F 94% 30.03 in 10.0 mi SSE 4.6 mph - N/A   Overcast
9:45 PM 62.6 °F 60.8 °F 94% 30.01 in 10.0 mi SE 5.8 mph - N/A   Mostly Cloudy
10:17 PM 62.1 °F 60.1 °F 93% 30.01 in 7.0 mi SSE 4.6 mph - N/A   Mostly Cloudy
10:36 PM 61.9 °F 59.9 °F 93% 30.02 in 7.0 mi South 6.9 mph - N/A   Overcast
10:56 PM 62.1 °F 60.1 °F 93% 30.02 in 7.0 mi South 5.8 mph - N/A   Overcast
11:17 PM 61.9 °F 59.9 °F 93% 30.01 in 7.0 mi SSE 5.8 mph - N/A   Overcast
11:36 PM 61.9 °F 59.9 °F 93% 30.02 in 7.0 mi SSW 8.1 mph - N/A   Overcast
11:56 PM 61.9 °F 59.9 °F 93% 30.01 in 7.0 mi South 9.2 mph - N/A   Overcast